Tracking 19827 objects as of 21-Aug-2019
HD Live streaming from Space Station
objects crossing your sky now

COSMOS 2251 DEB

Track COSMOS 2251 DEB now!
10-day predictions


NORAD ID: 35584
Int'l Code: 1993-036AMB
Perigee: 729.2 km
Apogee: 927.2 km
Inclination: 74.1 °
Period: 101.3 minutes
Semi major axis: 7199 km
RCS: 0.0074 m2 (small)
Launch date: June 16, 1993
Source: Commonwealth of Independent States (former USSR) (CIS)
Launch site: PLESETSK MISSILE AND SPACE COMPLEX (PKMTR)

Note: This is SATELLITE DEBRIS
aabbcc
Your satellite tracking list
Your tracking list is empty




NASA's NSSDC Master Catalog

Two Line Element Set (TLE):
1 35584U 93036AMB 19232.72337687  .00001448  00000-0  61423-3 0  9992
2 35584  74.0888 130.5422 0137530 335.7684  23.7030 14.21275897527403
Source of the keplerian elements: AFSPC